Location: Mohawk View
(42.7837°N, 73.7885°W)
Time: 08:22:00
(UTC+00:00)

Meteor 2-21 Rocket - Pass Details

Date: 17 June 2021
Orbit: 935 x 968 km, 82.5° (Epoch: 27 July)

Event Time Altitude Azimuth Distance (km) Brightness Sun altitude
Exits shadow 08:13:49 - 192° (SSW) 3,006 6.6 -9.7°
Reaches altitude 10° 08:14:43 10° 193° (SSW) 2,666 6.3 -9.6°
Maximum altitude 08:20:49 77° 279° (W) 986 4.5 -8.8°
Drops below altitude 10° 08:27:02 10° 5° (N) 2,705 7.6 -8.0°
Sets 08:29:33 0° 7° (N) 3,659 8.4 -7.6°
